Wind_Speed
23 23 24 24 24 25 25 26 26 24 24 23 23 22 21 21 21 21 20 19 18 18 18 18 18 18 18 18 17 18 18 18 18 18 18 18 19 19 19 18 17 16 16 17
24 24 26 26 26 26 26 26 26 26 25 24 24 23 22 21 21 20 20 18 18 18 17 17 18 18 17 17 17 17 18 17 17 18 18 19 18 18 18 17 16 15 16 16
25 24 26 25 25 25 25 25 25 25 25 24 23 21 20 20 19 19 19 18 18 18 18 19 18 18 18 17 17 17 17 17 17 18 18 18 18 18 17 16 16 16 16 16
25 24 24 24 24 24 25 25 25 24 24 23 22 21 19 18 18 18 18 18 17 17 17 16 16 17 17 17 16 16 16 16 16 17 17 18 18 17 16 16 16 17 16 16
24 24 23 23 23 23 24 25 24 23 23 22 21 20 19 19 18 18 17 16 16 16 16 16 16 16 16 16 15 15 14 14 15 16 16 17 16 16 16 16 16 16 16 15
23 23 23 23 24 22 22 22 22 22 22 22 21 19 18 18 17 17 16 16 15 15 15 15 15 14 14 14 13 13 13 14 14 15 15 16 16 15 15 15 15 15 15 15
22 22 23 24 23 21 21 21 21 21 22 21 20 19 18 18 17 16 16 15 15 14 15 15 13 12 12 13 13 13 13 13 14 14 14 14 14 14 15 15 14 15 15 15
23 23 23 23 22 22 22 21 21 21 21 20 19 18 17 16 16 15 14 14 13 13 13 13 12 11 11 12 12 12 11 11 11 11 12 13 13 13 14 14 14 14 14 14
23 22 22 23 22 21 21 21 21 21 20 19 18 17 16 15 15 14 13 13 12 11 11 11 11 10 10 11 11 10 10 10 10 10 12 12 12 13 14 14 14 14 14 14
22 21 21 21 20 19 20 20 20 20 19 18 18 16 15 15 14 13 13 12 11 10 11 11 11 10 11 11 10 9 8 8 9 10 11 11 11 12 13 14 14 14 14 14
21 20 20 18 19 19 18 19 19 20 18 17 17 16 15 14 14 12 12 12 11 10 10 10 9 9 9 9 8 7 7 7 8 9 10 10 11 12 12 13 14 14 14 14
20 19 19 19 19 19 19 18 18 18 17 17 17 16 16 15 14 12 11 11 11 9 9 8 7 7 7 6 6 5 6 6 7 8 9 10 10 11 13 14 14 15 15 15
21 20 20 20 19 19 19 18 17 17 16 16 16 16 15 14 12 11 10 10 10 9 7 6 6 5 5 4 3 4 5 6 7 8 9 10 11 12 13 13 14 15 16 16
21 21 21 20 19 18 18 17 16 15 14 14 14 14 12 12 10 8 8 8 8 7 6 5 3 3 4 3 4 4 5 6 7 8 9 10 12 12 13 13 14 15 15 16
21 21 20 19 19 18 17 16 15 14 12 12 12 11 10 9 8 6 6 6 6 6 5 4 3 3 3 3 4 5 5 6 8 9 10 11 12 12 13 13 14 15 15 16
19 19 19 19 19 18 16 15 14 13 12 11 11 10 9 8 6 5 5 5 5 5 4 4 3 3 3 4 4 5 6 7 8 9 11 12 12 12 12 13 14 15 16 17
18 17 17 17 16 15 13 13 12 12 11 11 10 9 8 7 6 5 5 5 4 4 3 3 3 3 3 4 4 5 6 7 8 9 11 12 12 12 13 14 15 16 17 18
16 15 15 14 14 13 12 11 10 10 10 10 9 8 7 7 6 6 5 5 4 4 2 2 3 3 3 4 4 5 6 7 8 9 11 12 12 13 14 15 16 17 18 19
15 14 13 13 12 11 10 10 10 10 10 9 9 9 8 7 6 5 5 5 4 3 2 2 2 3 3 4 4 5 6 7 8 9 10 11 13 13 14 15 16 17 19 19
14 13 12 11 10 10 10 10 10 10 9 9 9 10 9 7 6 5 5 5 5 4 3 2 2 2 3 4 4 5 6 7 8 9 10 12 13 14 15 16 17 18 19 20
14 13 12 11 11 10 10 11 11 11 10 10 10 10 9 8 6 6 5 5 5 4 3 2 2 2 3 3 5 6 6 7 8 9 11 12 14 14 15 16 17 18 19 21
14 14 13 11 11 11 11 11 12 12 11 11 11 10 9 8 7 6 6 5 5 4 3 2 2 2 3 3 4 5 6 7 8 10 11 13 14 15 16 17 18 19 20 21
13 12 11 11 11 11 11 11 12 12 12 12 11 10 9 8 7 6 6 6 5 4 3 2 2 2 2 3 4 5 6 8 9 11 12 13 15 17 17 18 19 20 21 22
12 11 11 11 12 12 12 12 12 12 12 11 11 11 10 9 8 7 6 6 5 4 3 3 2 2 3 4 4 6 7 8 10 11 12 14 15 17 18 19 20 20 21 22
13 12 11 12 12 12 12 12 12 13 13 12 12 12 11 10 9 8 7 6 5 4 4 3 3 3 4 4 6 7 8 9 10 11 13 14 16 17 18 19 20 21 22 23
13 13 13 13 14 14 14 14 14 14 13 13 13 13 12 11 10 9 7 6 6 5 4 3 3 3 4 5 6 7 8 9 11 12 14 15 17 18 19 20 21 21 22 23
15 14 15 15 15 15 16 15 15 14 14 13 13 13 13 12 10 9 8 7 7 5 4 4 4 4 4 5 6 8 9 10 12 14 15 16 18 19 20 21 21 22 23 24
Wind_Direction
283 283 283 283 283 283 283 284 285 287 289 290 289 291 291 291 292 291 290 290 292 294 298 299 301 302 303 304 305 309 310 313 315 318 320 322 325 325 325 324 320 317 318 320
282 282 282 282 283 284 283 284 282 283 285 286 287 289 289 288 289 289 288 289 292 292 296 300 301 301 303 304 304 307 309 314 318 321 324 324 324 323 325 327 326 324 324 324
285 285 284 281 283 283 282 283 282 282 283 283 286 288 288 287 287 288 287 289 290 292 295 299 299 299 301 304 305 308 309 314 318 322 324 325 323 324 326 327 328 327 324 324
290 289 289 290 288 285 283 282 283 281 280 281 282 285 286 287 286 286 288 290 291 292 297 300 299 298 300 301 303 306 309 312 316 319 322 323 324 325 324 324 323 324 322 320
290 291 292 291 291 290 286 284 283 280 277 277 280 281 281 283 284 286 288 291 293 292 293 297 300 299 299 298 299 304 308 311 315 319 322 324 324 326 326 325 324 325 325 323
290 293 294 294 294 293 289 286 283 280 277 276 277 276 276 276 279 285 288 290 289 289 291 295 298 298 299 298 299 304 309 311 315 319 322 326 328 330 330 330 329 329 328 328
286 289 292 294 294 291 286 284 284 281 279 278 277 277 277 275 278 283 286 287 286 286 289 292 295 299 299 296 296 300 307 311 314 319 323 327 330 332 333 334 334 334 335 333
284 285 289 290 289 286 285 283 282 282 279 277 275 275 275 276 277 281 284 283 283 287 290 291 293 297 301 298 296 301 309 313 316 321 326 329 332 335 338 338 338 339 339 340
283 285 288 287 285 284 284 283 282 280 277 275 274 274 276 277 279 277 278 277 277 284 286 284 287 290 299 301 297 298 307 315 319 324 326 328 332 337 342 343 344 344 345 344
281 284 285 285 282 283 283 282 281 279 278 277 274 272 273 273 277 275 270 272 273 279 283 283 284 287 293 300 293 295 304 313 322 325 327 329 333 337 341 343 343 343 344 346
281 284 284 283 282 284 283 283 280 279 279 276 273 271 269 268 271 274 268 266 269 272 275 281 283 291 295 296 293 298 305 315 323 329 333 335 337 341 345 346 347 346 345 344
283 284 283 283 280 280 280 281 278 278 276 272 273 273 268 267 269 271 268 264 269 269 271 275 282 297 303 304 301 311 318 324 331 335 337 339 339 343 346 347 348 348 347 346
283 283 282 281 277 277 278 276 275 275 273 271 270 272 269 263 265 268 265 261 263 264 265 270 286 302 305 308 328 340 340 338 338 339 338 340 339 340 343 344 345 346 346 346
279 279 280 278 274 273 274 271 270 270 271 270 269 269 267 265 267 267 262 258 257 257 256 262 277 299 302 312 337 344 342 345 345 343 341 341 342 342 344 346 346 345 345 346
277 278 279 276 272 273 275 271 269 267 265 264 263 263 264 264 264 263 263 260 253 250 245 241 267 285 295 315 329 332 337 342 344 343 344 343 342 342 343 344 344 345 346 347
275 276 275 273 273 273 272 270 266 261 259 255 253 256 257 251 250 253 253 247 250 247 242 248 267 286 298 317 323 329 337 341 342 342 341 341 341 342 343 343 344 344 345 346
274 271 270 270 270 271 270 267 261 254 251 247 247 245 244 240 235 231 226 231 239 230 231 254 259 275 300 319 324 329 334 338 340 341 343 343 343 344 344 343 344 344 344 345
270 268 268 268 267 266 262 257 250 243 240 240 239 228 219 223 223 214 213 222 228 220 225 235 246 264 291 314 321 329 334 337 340 341 343 343 345 344 343 343 343 343 343 343
265 266 265 265 266 261 253 244 237 233 233 234 227 215 210 216 214 206 213 221 215 215 222 234 264 272 286 305 314 324 331 335 338 341 342 341 342 343 343 342 342 342 342 342
260 262 263 261 257 253 246 237 229 226 225 223 218 215 210 205 205 208 215 212 207 213 220 240 269 287 292 301 312 323 329 333 336 339 340 341 343 345 344 343 342 341 342 342
257 258 258 256 252 248 241 235 226 218 219 216 208 202 200 198 202 207 209 205 204 205 223 245 267 289 299 309 316 321 324 328 333 337 339 340 343 344 343 341 341 341 342 342
257 255 251 249 245 239 233 228 219 213 211 205 200 198 197 198 201 201 203 205 205 209 220 240 266 287 301 313 321 323 323 326 331 336 336 337 340 341 341 340 339 339 340 340
253 248 241 238 233 225 221 216 210 205 202 199 197 195 196 198 200 201 198 198 201 205 217 235 265 300 320 328 330 327 324 326 331 335 335 336 339 340 340 339 338 338 339 339
244 240 235 228 222 217 211 206 202 200 198 194 192 195 199 199 199 199 199 194 193 203 218 238 262 301 329 344 345 338 334 333 333 336 337 337 339 340 340 339 339 339 339 339
235 231 224 217 212 207 201 199 200 200 198 197 198 202 202 201 201 198 198 199 202 207 220 238 264 298 328 348 352 348 343 338 337 340 341 340 339 340 341 340 340 340 340 340
226 222 218 213 208 204 201 201 201 200 200 200 201 202 202 202 200 200 200 202 207 210 219 238 268 297 323 342 349 351 347 343 341 342 342 341 340 340 340 340 340 341 341 341
224 220 216 211 207 204 202 201 201 200 199 197 198 199 200 201 200 200 202 207 212 216 224 242 264 294 318 332 342 345 344 341 340 340 340 340 341 341 341 340 340 341 342 342
Height
5803 5802 5800 5800 5800 5799 5797 5796 5794 5794 5793 5792 5792 5791 5789 5788 5787 5785 5784 5782 5781 5780 5778 5776 5773 5771 5768 5765 5763 5761 5759 5756 5753 5750 5748 5744 5741 5738 5734 5730 5727 5724 5722 5719
5796 5796 5794 5793 5792 5791 5790 5789 5788 5787 5787 5785 5785 5784 5783 5782 5781 5779 5778 5777 5776 5775 5773 5771 5769 5767 5764 5762 5760 5758 5756 5753 5750 5748 5745 5742 5739 5735 5732 5728 5725 5722 5720 5717
5789 5788 5787 5786 5786 5784 5783 5782 5781 5780 5780 5779 5779 5778 5777 5776 5775 5773 5772 5772 5771 5770 5768 5766 5764 5763 5761 5759 5756 5754 5752 5750 5748 5745 5742 5739 5736 5733 5729 5726 5723 5720 5718 5715
5781 5781 5780 5781 5778 5777 5775 5774 5773 5773 5772 5772 5773 5772 5771 5770 5769 5768 5767 5766 5765 5764 5763 5761 5759 5758 5757 5755 5753 5751 5749 5747 5744 5742 5739 5736 5733 5730 5727 5724 5721 5718 5715 5713
5774 5773 5773 5773 5771 5769 5768 5767 5766 5765 5765 5766 5766 5766 5766 5765 5764 5763 5762 5761 5760 5759 5758 5756 5755 5754 5752 5751 5749 5747 5745 5743 5741 5739 5737 5734 5731 5728 5725 5722 5719 5716 5713 5710
5768 5766 5766 5767 5765 5762 5762 5760 5759 5758 5758 5759 5759 5760 5760 5759 5758 5757 5756 5756 5755 5754 5753 5752 5751 5749 5748 5747 5746 5744 5742 5740 5739 5737 5734 5732 5729 5726 5723 5720 5717 5714 5711 5708
5763 5761 5760 5760 5758 5757 5756 5756 5754 5752 5752 5752 5753 5753 5754 5753 5753 5752 5752 5751 5750 5750 5749 5748 5746 5745 5745 5744 5742 5741 5739 5738 5736 5734 5732 5730 5727 5725 5722 5719 5716 5713 5710 5707
5757 5755 5757 5753 5751 5751 5749 5748 5747 5747 5746 5746 5747 5747 5748 5748 5747 5747 5747 5746 5746 5745 5745 5744 5742 5742 5741 5740 5738 5737 5736 5735 5734 5732 5730 5728 5726 5723 5720 5717 5714 5711 5708 5705
5751 5751 5749 5746 5744 5744 5742 5742 5741 5741 5741 5741 5741 5742 5742 5742 5742 5742 5742 5742 5742 5741 5741 5740 5739 5738 5737 5736 5735 5735 5734 5733 5731 5730 5728 5726 5724 5722 5719 5716 5713 5710 5707 5704
5744 5744 5742 5740 5738 5738 5737 5736 5736 5735 5735 5735 5736 5737 5737 5737 5737 5737 5738 5737 5737 5737 5737 5736 5735 5734 5734 5733 5732 5732 5731 5730 5729 5728 5726 5724 5722 5720 5718 5715 5712 5709 5706 5703
5738 5738 5737 5736 5733 5732 5732 5731 5730 5730 5729 5729 5730 5731 5732 5732 5732 5732 5733 5733 5733 5733 5732 5732 5732 5731 5730 5730 5729 5729 5729 5728 5727 5726 5724 5723 5721 5719 5716 5714 5711 5708 5705 5702
5732 5732 5730 5730 5728 5727 5726 5725 5725 5724 5725 5725 5725 5726 5726 5727 5727 5727 5728 5728 5729 5729 5729 5729 5729 5729 5728 5728 5727 5727 5726 5726 5725 5724 5723 5721 5720 5718 5715 5713 5710 5707 5704 5700
5725 5725 5724 5723 5722 5721 5720 5720 5719 5719 5719 5720 5721 5721 5721 5722 5723 5723 5723 5724 5725 5725 5725 5726 5726 5726 5727 5727 5726 5725 5725 5725 5724 5722 5721 5720 5718 5716 5714 5711 5708 5705 5702 5699
5719 5718 5718 5717 5716 5716 5715 5714 5714 5715 5715 5716 5717 5717 5718 5718 5719 5720 5720 5721 5722 5722 5723 5724 5724 5725 5725 5725 5725 5724 5724 5723 5722 5721 5720 5719 5717 5715 5712 5710 5707 5704 5701 5698
5714 5713 5712 5711 5711 5710 5710 5710 5710 5711 5712 5713 5714 5715 5715 5716 5717 5718 5718 5719 5719 5720 5721 5722 5722 5723 5724 5724 5724 5723 5723 5722 5721 5720 5718 5717 5715 5713 5711 5708 5706 5703 5700 5697
5708 5707 5706 5706 5706 5706 5706 5706 5706 5707 5708 5709 5711 5712 5713 5714 5715 5716 5717 5717 5718 5719 5720 5720 5721 5722 5722 5722 5723 5722 5722 5721 5720 5718 5717 5716 5714 5712 5710 5707 5704 5701 5698 5695
5702 5702 5701 5701 5701 5701 5701 5701 5702 5703 5704 5706 5707 5709 5710 5712 5713 5714 5715 5716 5717 5718 5718 5719 5719 5720 5721 5721 5721 5721 5720 5720 5718 5717 5716 5714 5712 5710 5708 5706 5703 5699 5696 5693
5697 5697 5696 5696 5696 5696 5697 5698 5698 5700 5701 5702 5704 5706 5708 5710 5712 5713 5714 5715 5716 5717 5717 5718 5718 5719 5719 5720 5720 5719 5719 5718 5717 5716 5714 5712 5710 5708 5706 5703 5701 5697 5694 5691
5692 5692 5692 5692 5692 5693 5693 5695 5696 5697 5699 5700 5702 5704 5706 5708 5710 5711 5713 5714 5715 5716 5717 5717 5717 5718 5718 5718 5718 5718 5717 5716 5715 5714 5713 5711 5709 5706 5704 5701 5698 5695 5692 5689
5689 5688 5688 5688 5689 5690 5691 5692 5693 5695 5697 5698 5700 5702 5705 5707 5709 5710 5712 5713 5714 5715 5715 5716 5716 5716 5717 5717 5717 5716 5716 5715 5714 5713 5711 5710 5707 5705 5702 5699 5696 5693 5690 5686
5685 5685 5685 5685 5686 5687 5688 5689 5690 5693 5695 5696 5699 5701 5704 5706 5707 5709 5710 5712 5713 5714 5714 5715 5715 5715 5715 5715 5715 5715 5714 5714 5713 5712 5710 5708 5705 5703 5700 5697 5694 5691 5687 5683
5681 5681 5681 5682 5682 5684 5685 5686 5688 5690 5692 5695 5698 5700 5703 5705 5706 5708 5709 5711 5712 5713 5713 5714 5714 5714 5714 5714 5714 5713 5713 5712 5711 5710 5708 5706 5703 5701 5698 5695 5692 5688 5685 5681
5677 5677 5678 5678 5679 5681 5683 5684 5686 5688 5691 5694 5697 5700 5702 5704 5706 5707 5709 5710 5711 5712 5712 5713 5713 5713 5713 5713 5712 5712 5711 5710 5709 5708 5706 5704 5701 5699 5696 5692 5689 5686 5682 5678
5674 5674 5675 5676 5677 5679 5681 5683 5685 5687 5690 5693 5696 5699 5701 5703 5705 5706 5707 5709 5710 5711 5712 5712 5713 5712 5712 5711 5711 5710 5710 5708 5707 5705 5704 5701 5699 5696 5693 5690 5686 5683 5679 5675
5670 5671 5673 5674 5676 5677 5679 5682 5684 5687 5690 5692 5695 5698 5700 5702 5704 5705 5707 5708 5709 5710 5711 5711 5712 5712 5711 5710 5710 5709 5708 5707 5705 5703 5702 5699 5697 5694 5691 5688 5684 5681 5677 5673
5667 5668 5670 5672 5674 5675 5678 5680 5683 5686 5689 5691 5694 5697 5698 5700 5702 5704 5706 5707 5708 5709 5710 5710 5710 5710 5710 5709 5709 5707 5706 5705 5703 5702 5700 5697 5695 5692 5688 5685 5681 5678 5674 5670
5663 5665 5667 5669 5672 5674 5676 5679 5682 5685 5687 5690 5692 5695 5697 5699 5701 5703 5704 5706 5707 5708 5708 5709 5709 5709 5708 5708 5707 5706 5705 5703 5702 5700 5697 5695 5692 5689 5686 5682 5679 5675 5671 5667